Flag for Canada Weather past 2 weeks in Grise Fiord, Nunavut, Canada

Now
23 °F

Scattered clouds.


Feels Like: 10 °F
Forecast: 25 / 48 °F
Wind: 15 mph from Southeast

Location: Thule A. B.

Current Time: May 24, 2015 at 3:52:17 AM

Latest Report: May 24, 2015 at 2:58 AM


Visibility: N/A

Pressure: 29.71 "Hg

Humidity: 80%

Dew point: 18 °F

Location of Grise FiordLocation

Historic Weather in Grise Fiord — Graph

°F

Grise Fiord temperature yesterday

Maximum temperature yesterday: 28 °F (at 8:58 AM)
Minimum temperature yesterday: 23 °F (at 1:04 AM)
Average temperature yesterday: 26 °F

Past Weeks' High & Low Weather Summary

 TemperatureHumidityPressure
High34 °F (May 20, 11:58 AM)93% (May 9, 2:58 AM)29.96 "Hg (May 9, 2:58 AM)
Low18 °F (May 13, 12:58 AM)37% (May 20, 9:58 AM)29.37 "Hg (May 22, 6:58 PM)
Average25 °F71%29.66 "Hg
* Reported May 9 1:58 AM — May 24 1:58 AM, Grise Fiord, Weather by CustomWeather, © 2015

Note: Actual official high and low records may vary slightly from our data, if they occured in-between our weather recording intervals... More about our weather records

Advertising

Grise Fiord weather history for previous 24 hours

 ConditionsComfort  
Time TempWeatherWind HumidityBarometerVisibility
1:58 AM
Sun, May 24
25 °FPartly sunny.18 mph69%29.69 "HgN/A
12:58 AM25 °FScattered clouds.18 mph74%29.67 "HgN/A
11:58 PM
Sat, May 23
25 °FOvercast.28 mph74%29.66 "HgN/A
10:58 PM25 °FOvercast.29 mph69%29.65 "HgN/A
9:58 PM25 °FPassing clouds.17 mph74%29.67 "HgN/A
8:58 PM25 °FPassing clouds.21 mph74%29.67 "HgN/A
7:58 PM25 °FPartly sunny.17 mph80%29.67 "HgN/A
6:58 PM25 °FOvercast.18 mph80%29.65 "HgN/A
5:58 PM25 °FPartly sunny.20 mph80%29.64 "Hg4 mi
4:58 PM27 °FLight snow. Partly sunny.21 mph74%29.62 "Hg6 mi
4:02 PM27 °FMostly cloudy.21 mph74%29.65 "HgN/A
3:58 PM27 °FOvercast.23 mph74%29.61 "HgN/A
3:04 PM27 °FPartly sunny.25 mph69%29.62 "HgN/A
1:58 PM27 °FOvercast.31 mph74%29.53 "HgN/A
12:58 PM27 °FPassing clouds.29 mph74%29.51 "HgN/A
11:58 AM27 °FScattered clouds.18 mph80%29.51 "HgN/A
10:58 AM27 °FLight snow. Partly sunny.20 mph80%29.50 "Hg3 mi
9:58 AM28 °FPassing clouds.23 mph64%29.49 "HgN/A
8:58 AM28 °FPartly sunny.24 mph59%29.48 "HgN/A
7:58 AM27 °FMostly cloudy.25 mph64%29.48 "HgN/A
6:58 AM27 °FMostly cloudy.23 mph64%29.48 "HgN/A
5:58 AM27 °FOvercast.21 mph64%29.47 "HgN/A
4:58 AM25 °FOvercast.22 mph69%29.47 "HgN/A
3:58 AM25 °FOvercast.24 mph69%29.47 "HgN/A
3:01 AM23 °FBroken clouds.25 mph80%29.50 "HgN/A
Weather by CustomWeather, © 2015

See weather overviewHow to use our weather pages